Location: Palomar Mountain Lodge
(33.3110°N, 116.8495°W)
Time: 15:23:32
(UTC-07:00)

Cosmos 1943 Rocket - Pass Details

Date: 19 May 2017
Orbit: 812 x 844 km, 71.0° (Epoch: 23 June)

Event Time Altitude Azimuth Distance (km) Brightness Sun altitude
Rises 21:52:19 0° 334° (NNW) 3,385 6.6 -22.8°
Reaches altitude 10° 21:54:48 10° 331° (NNW) 2,443 5.6 -23.1°
Maximum altitude 22:00:16 58° 253° (WSW) 962 2.5 -23.9°
Enters shadow 22:01:58 41° 198° (SSW) 1,187 2.7 -24.1°
